DELTA 1 DEB, 1313

Orbit data source: Space-Track

DELTA 1 DEB, 1313 is space debris in SSO originally from a launch on Fri, 22 Jan 1965 UTC launched from the Air Force Eastern Test Range (AFETR). Debris objects in space refer to the collection of defunct objects orbiting the Earth. Examples of debris include non-operational satellites, rocket bodies, and fragments generated from explosions, collisions, or faulty payload assembly.

Loading next visibility...
Identifier
1313, 1965-004D
Orbit
SSO
Last TLE update
1 day ago
Origin
Manufacturer
Unknown
Mission
Spacecraft
Bus & Motor
Unknown
Mass
~1 kg wet, ~1 kg dry
Launch date (UTC)
1965-01-22 (60 years ago)
Launch vehicle
Unknown
Launch site
Air Force Eastern Test Range (AFETR)
Object type
Payload
Rocket body
Debris
Shape & HBR
Box + 1 Cable, 3.5 m
Radar Cross Section
6.125 m², Small (<0.1 m²)

Expand to show TLE details & history

TLE from 1 day ago
0 DELTA 1 DEB
1 01313U 65004D   25128.33782357 -.00000327  00000-0 -47895-3 0  9999
2 01313  96.4246 266.2992 1175067 104.4318 268.9827 12.00782785637856
Epoch: 2025-05-08T08:06Z
Definitive object data (Epoch: 2025-05-08T08:06:27.956Z)
Latitude
0.00004°
Longitude
-81.72705°
Altitude
1,806.767 km
Speed
6.925 km/s
True Right ascension
17h 45m 11s
True Declination
0° 00' 00"
Sunlit
Object was in full shadow at TLE epoch
Visualization TLE readout
Latitude
-18.98494°
Longitude
-79.01373°
Altitude
2,088.911 km
Speed
6.687 km/s
Apparent Right ascension
20h 01m 19s
Apparent Declination
-57° 58' 57"
Sunlit
Object is in full shadow
Visualization observer readout
Local Sidereal Time
16:08:33
Azimuth
151.494° SSE
Elevation
-19.252°
Doppler factor
1
Orbital elements
Apogee altitude
2,620.936 km
Perigee altitude
728.417 km
Semi-major axis
8,052.814 km
Eccentricity
0.1175067
Inclination
96.4246°
RAAN
266.2992°
Arg. of periapsis
104.4318°
True anomaly
255.67514°
Mean anomaly
268.9827°
Eccentric anomaly
262.3106°
Mean motion
3.00346 °/min
BSTAR
-0.00047895
Orbital period
119.86 mins
Loading maneuver chart data...
Loading SW <> Apogee altitude chart data...
Loading historical data...
Loading historical data...
Loading historical data...
Loading historical data...
Loading historical data...
Loading historical data...
Loading historical data...
Other satellites on launch #4 in the year 1965 (1965-01-22 UTC)

DELTA 1 DEB Visibility forecast

Observer location: undefined°, undefined°

Span
Click to sort rows by Start time (UTC) header in descending order
Start Az.
Max El. time (UTC)
Max El. Az.
Max El.
End time (UTC)
End Az.
11 mins2025-05-09 08:13:28.261Z133.232° SE2025-05-09 08:19:28.261Z76.315° E30.283°2025-05-09 08:24:28.261Z11.752° NNE
11 mins2025-05-09 10:12:28.261Z207.023° SW2025-05-09 10:18:28.261Z267.23° W28.521°2025-05-09 10:23:28.261Z325.553° NNW
7 mins2025-05-09 20:43:28.261Z55.264° ENE2025-05-09 20:46:28.261Z97.073° ESE20.377°2025-05-09 20:50:28.261Z140.452° SSE
8 mins2025-05-09 22:42:28.261Z335.814° NNW2025-05-09 22:45:28.261Z276.495° WNW30.222°2025-05-09 22:50:28.261Z222.277° SW
|